This demonstration page uses our WeatherBlox Daily Observations layout. Learn more.

Left ArrowRight Arrow

40.97296, -117.73568

Hourly Observations for November 6, 2020

Temp ( °F °C ) Dew Point ( °F °C ) Humidity (%) Winds ( mph kmh ) Pressure ( in mb ) Visibility ( mi km ) Precip ( " mm )
12:56 am 00:56 Clear 54 12.2 16 -8.9 22 22 S 10 17 29.69 1005 10 16 0.00 0.00
1:56 am 01:56 Clear 56 13.3 17 -8.3 22 22 S 10 17 29.64 1004 10 16 0.00 0.00
2:56 am 02:56 Clear 57 13.9 17 -8.3 21 21 SSW 15 24 29.60 1003 10 16 0.00 0.00
3:56 am 03:56 Clear 54 12.2 17 -8.3 23 23 S 12 19 29.58 1002 10 16 0.00 0.00
4:56 am 04:56 Clear 56 13.3 16 -8.9 21 21 SSW 7 11 29.56 1001 10 16 0.00 0.00
5:56 am 05:56 Clear 54 12.2 16 -8.9 22 22 WSW 10 17 29.56 1001 10 16 0.00 0.00
6:56 am 06:56 Sunny 53 11.7 16 -8.9 23 23 SSW 10 17 29.54 1001 10 16 0.00 0.00
7:56 am 07:56 Sunny 58 14.4 16 -8.9 19 19 WSW 6 9 29.52 1000 10 16 0.00 0.00
8:56 am 08:56 Sunny 62 16.7 17 -8.3 17 17 S 10 17 29.49 999 10 16 0.00 0.00
9:56 am 09:56 Sunny 65 18.3 16 -8.9 15 15 Calm 29.47 998 10 16 0.00 0.00
10:56 am 10:56 Mostly Sunny 69 20.6 17 -8.3 14 14 W 14 22 29.42 996 10 16 0.00 0.00
11:56 am 11:56 Partly Cloudy 67 19.4 19 -7.2 16 16 W 21 33 29.39 995 10 16 0.00 0.00
12:56 pm 12:56 Mostly Cloudy with Haze 61 16.1 33 0.6 35 35 WNW 22 35 29.37 995 5 8 0.00 0.00
1:56 pm 13:56 Mostly Cloudy 59 15 33 0.6 38 38 WNW 14 22 29.38 995 7 11 0.00 0.00
2:56 pm 14:56 Sunny 57 13.9 31 -0.6 37 37 W 17 28 29.38 995 10 16 0.00 0.00
3:56 pm 15:56 Mostly Cloudy 55 12.8 30 -1.1 38 38 WNW 14 22 29.39 995 10 16 0.00 0.00
4:56 pm 16:56 Mostly Cloudy 51 10.6 30 -1.1 44 44 W 14 22 29.41 996 10 16 0.00 0.00
5:56 pm 17:56 Mostly Cloudy 50 10 30 -1.1 46 46 W 14 22 29.44 997 10 16 0.00 0.00
6:56 pm 18:56 Cloudy 47 8.3 30 -1.1 52 52 W 18 30 29.48 998 10 16 0.00 0.00
7:56 pm 19:56 Cloudy 41 5 32 0 70 70 W 17 28 29.49 999 10 16 0.00 0.00
8:56 pm 20:56 Cloudy 40 4.4 32 0 73 73 W 9 15 29.49 999 10 16 0.00 0.00
9:56 pm 21:56 Cloudy with Light Rain 38 3.3 33 0.6 83 83 W 12 19 29.50 999 9 14 0.00 0.00
10:56 pm 22:56 Cloudy with Light Rain 37 2.8 33 0.6 86 86 W 9 15 29.49 999 8 13 0.02 0.51
11:07 pm 23:07 Cloudy with Light Rain 36 2.2 33 0.6 89 89 W 12 19 29.63 1003 7 11 0.01 0.25
11:22 pm 23:22 Cloudy with Light Snow 35 1.7 31 -0.6 85 85 W 9 15 29.65 1004 5 8 0.03 0.76
11:37 pm 23:37 Cloudy with Light Snow 34 1.1 31 -0.6 89 89 WNW 8 13 29.65 1004 3 5 0.04 1.02
11:41 pm 23:41 Cloudy with Light Snow 33 0.6 30 -1.1 89 89 WNW 8 13 29.66 1004 2 3 0.05 1.27
11:51 pm 23:51 Mostly Cloudy with Light Snow 34 1 30 -1 87 87 W 6 9 29.65 1004 1 2 0.06 1.52
11:56 pm 23:56 Mostly Cloudy with Light Snow 33 0.6 30 -1.1 89 89 W 7 11 29.51 999 1 2 0.07 1.78

Powered by AerisWeather